,,Stat5,,Stat1,,Stat2,,Stat3,,Stat4,,Wind1,,Wind1,
time,status,PA1M_AVG,status,PR1M_SUM,status,RH1M_AVG,status,SR1M_AVG,status,TA1M_AVG,status,W1dAve1m,status,W1sAve1m,
2002-04-28, 00:00:01,VALID,916.276,VALID,0,VALID,99.3606,VALID,0,VALID,20.5554,VALID,129,VALID,0.459293,
2002-04-28, 00:01:01,VALID,916.283,VALID,0,VALID,99.3797,VALID,0,VALID,20.5946,VALID,123,VALID,0.67528,
2002-04-28, 00:02:00,VALID,916.294,VALID,0,VALID,99.3784,VALID,0,VALID,20.6558,VALID,134,VALID,0.727965,
2002-04-28, 00:03:01,VALID,916.28,VALID,0,VALID,99.3721,VALID,0.0339617,VALID,20.6913,VALID,149,VALID,0.73125,
2002-04-28, 00:04:00,VALID,916.268,VALID,0,VALID,99.3632,VALID,-0.0169808,VALID,20.6625,VALID,172,VALID,1.05369,
2002-04-28, 00:05:01,VALID,916.263,VALID,0,VALID,99.367,VALID,0,VALID,20.6302,VALID,172,VALID,1.03806,
2002-04-28, 00:06:00,VALID,916.251,VALID,0,VALID,99.3695,VALID,0.0339617,VALID,20.6466,VALID,181,VALID,0.893581,
2002-04-28, 00:07:01,VALID,916.236,VALID,0,VALID,99.367,VALID,0.0169808,VALID,20.6493,VALID,183,VALID,0.52691,
2002-04-28, 00:08:00,VALID,916.219,VALID,0,VALID,99.367,VALID,-0.0169808,VALID,20.6595,VALID,189,VALID,0.507813,
2002-04-28, 00:09:01,VALID,916.206,VALID,0,VALID,99.3581,VALID,0.0169808,VALID,20.6463,VALID,183,VALID,0.525841,
2002-04-28, 00:10:01,VALID,916.212,VALID,0,VALID,99.3568,VALID,0,VALID,20.6304,VALID,159,VALID,0.488567,
2002-04-28, 00:11:01,VALID,916.209,VALID,0,VALID,99.3556,VALID,0,VALID,20.5946,VALID,136,VALID,0.390165,
2002-04-28, 00:12:01,VALID,916.21,VALID,0,VALID,99.3556,VALID,0.0169808,VALID,20.5879,VALID,132,VALID,0.186266,
2002-04-28, 00:13:00,VALID,916.21,VALID,0,VALID,99.3619,VALID,0.0169808,VALID,20.578,VALID,134,VALID,0.204814,
2002-04-28, 00:14:01,VALID,916.2,VALID,0,VALID,99.3581,VALID,0.0339617,VALID,20.5909,VALID,134,VALID,0.385851,
2002-04-28, 00:15:01,VALID,916.187,VALID,0,VALID,99.3695,VALID,0.0339617,VALID,20.6008,VALID,135,VALID,0.727214,
2002-04-28, 00:16:01,VALID,916.176,VALID,0,VALID,99.3695,VALID,0.0339617,VALID,20.6434,VALID,111,VALID,0.608953,
2002-04-28, 00:17:01,VALID,916.166,VALID,0,VALID,99.3721,VALID,0,VALID,20.6913,VALID,107,VALID,0.670186,
2002-04-28, 00:18:01,VALID,916.156,VALID,0,VALID,99.3835,VALID,0.0169808,VALID,20.7239,VALID,105,VALID,0.739515,
2002-04-28, 00:19:01,VALID,916.143,VALID,0,VALID,99.3746,VALID,0,VALID,20.74,VALID,114,VALID,0.73763,
2002-04-28, 00:20:01,VALID,916.142,VALID,0,VALID,99.3734,VALID,0.0169808,VALID,20.7659,VALID,118,VALID,0.692508,
2002-04-28, 00:21:01,VALID,916.131,VALID,0,VALID,99.3772,VALID,0.0339617,VALID,20.798,VALID,119,VALID,0.766544,
2002-04-28, 00:22:01,VALID,916.144,VALID,0,VALID,99.3632,VALID,0,VALID,20.8009,VALID,111,VALID,0.63239,
2002-04-28, 00:23:01,VALID,916.144,VALID,0,VALID,99.3644,VALID,-0.0169808,VALID,20.7958,VALID,95,VALID,0.686678,
2002-04-28, 00:24:01,VALID,916.129,VALID,0,VALID,99.3644,VALID,-0.0679233,VALID,20.8127,VALID,94,VALID,0.506334,
2002-04-28, 00:25:01,VALID,916.108,VALID,0,VALID,99.3581,VALID,-0.0679233,VALID,20.8418,VALID,94,VALID,0.450247,
2002-04-28, 00:26:01,VALID,916.091,VALID,0,VALID,99.3581,VALID,-0.0509425,VALID,20.8507,VALID,94,VALID,0.494992,
2002-04-28, 00:27:01,VALID,916.08,VALID,0,VALID,99.3517,VALID,-0.0509425,VALID,20.8642,VALID,94,VALID,0.727431,
2002-04-28, 00:28:01,VALID,916.083,VALID,0,VALID,99.3403,VALID,-0.101885,VALID,20.886,VALID,95,VALID,0.605569,
2002-04-28, 00:29:01,VALID,916.063,VALID,0,VALID,99.3225,VALID,-0.0849042,VALID,20.89,VALID,103,VALID,0.565104,
2002-04-28, 00:30:01,VALID,916.053,VALID,0,VALID,99.3263,VALID,-0.0509425,VALID,20.8865,VALID,119,VALID,0.605183,
2002-04-28, 00:31:01,VALID,916.06,VALID,0,VALID,99.3123,VALID,-0.0679233,VALID,20.8795,VALID,127,VALID,0.51965,
2002-04-28, 00:32:01,VALID,916.058,VALID,0,VALID,99.306,VALID,-0.0169808,VALID,20.8895,VALID,123,VALID,0.413411,
2002-04-28, 00:33:01,VALID,916.056,VALID,0,VALID,99.2932,VALID,-0.0509425,VALID,20.8803,VALID,96,VALID,0.343339,
2002-04-28, 00:34:01,VALID,916.084,VALID,0,VALID,99.2754,VALID,-0.0509425,VALID,20.7923,VALID,75,VALID,0.158784,
2002-04-28, 00:35:01,VALID,916.093,VALID,0,VALID,99.2627,VALID,-0.0339617,VALID,20.6891,VALID,22,VALID,0.799479,
2002-04-28, 00:36:00,VALID,916.09,VALID,0,VALID,99.2424,VALID,-0.0509425,VALID,20.6089,VALID,14,VALID,0.863809,
2002-04-28, 00:37:00,VALID,916.084,VALID,0,VALID,99.2157,VALID,-0.0679233,VALID,20.5049,VALID,23,VALID,0.786106,
2002-04-28, 00:38:00,VALID,916.089,VALID,0,VALID,99.2119,VALID,-0.0169808,VALID,20.4721,VALID,22,VALID,0.712788,
2002-04-28, 00:39:00,VALID,916.09,VALID,0,VALID,99.1979,VALID,0.0169808,VALID,20.4423,VALID,22,VALID,0.607639,
2002-04-28, 00:40:00,VALID,916.089,VALID,0,VALID,99.2233,VALID,0.0169808,VALID,20.4234,VALID,22,VALID,0.523037,
2002-04-28, 00:41:00,VALID,916.074,VALID,0,VALID,99.2475,VALID,0.0339617,VALID,20.41,VALID,22,VALID,0.337776,
2002-04-28, 00:42:00,VALID,916.056,VALID,0,VALID,99.2678,VALID,0.0339617,VALID,20.4465,VALID,22,VALID,0.0479307,
2002-04-28, 00:43:00,VALID,916.052,VALID,0,VALID,99.292,VALID,0.0339617,VALID,20.4786,VALID,22,VALID,0,
2002-04-28, 00:44:00,VALID,916.046,VALID,0,VALID,99.3072,VALID,0.0169808,VALID,20.5007,VALID,22,VALID,0,
2002-04-28, 00:45:00,VALID,916.047,VALID,0,VALID,99.3288,VALID,0.0169808,VALID,20.5171,VALID,22,VALID,0,
2002-04-28, 00:46:00,VALID,916.038,VALID,0,VALID,99.3416,VALID,0,VALID,20.5203,VALID,22,VALID,0,
2002-04-28, 00:47:00,VALID,916.048,VALID,0,VALID,99.3416,VALID,0,VALID,20.523,VALID,24,VALID,0,
2002-04-28, 00:48:00,VALID,916.069,VALID,0,VALID,99.3365,VALID,0.0509425,VALID,20.5203,VALID,155,VALID,0.297877,
2002-04-28, 00:49:00,VALID,916.089,VALID,0,VALID,99.3441,VALID,0.0339617,VALID,20.5203,VALID,183,VALID,0.343316,
2002-04-28, 00:50:00,VALID,916.11,VALID,0,VALID,99.3454,VALID,0.0339617,VALID,20.5071,VALID,181,VALID,0.463986,
2002-04-28, 00:51:00,VALID,916.126,VALID,0,VALID,99.3517,VALID,0.0169808,VALID,20.5106,VALID,178,VALID,0.658854,
2002-04-28, 00:52:00,VALID,916.138,VALID,0,VALID,99.353,VALID,0,VALID,20.5171,VALID,169,VALID,0.611545,
2002-04-28, 00:53:00,VALID,916.136,VALID,0,VALID,99.3632,VALID,0.0339617,VALID,20.5273,VALID,154,VALID,0.966694,
2002-04-28, 00:54:00,VALID,916.125,VALID,0,VALID,99.367,VALID,0,VALID,20.5298,VALID,155,VALID,0.889992,
2002-04-28, 00:55:00,VALID,916.124,VALID,0,VALID,99.3708,VALID,0.0339617,VALID,20.5303,VALID,157,VALID,0.959635,
2002-04-28, 00:56:00,VALID,916.114,VALID,0,VALID,99.3683,VALID,-0.0339617,VALID,20.5432,VALID,147,VALID,1.24367,
2002-04-28, 00:57:00,VALID,916.09,VALID,0,VALID,99.3784,VALID,0.0169808,VALID,20.5494,VALID,152,VALID,1.10726,
2002-04-28, 00:58:00,VALID,916.062,VALID,0,VALID,99.3746,VALID,0,VALID,20.579,VALID,144,VALID,0.952097,
2002-04-28, 00:59:00,VALID,916.03,VALID,0,VALID,99.3886,VALID,0,VALID,20.5984,VALID,140,VALID,0.768663,
2002-04-28, 01:00:00,VALID,916,VALID,0,VALID,99.3899,VALID,0,VALID,20.5944,VALID,139,VALID,0.526442,
2002-04-28, 01:01:00,VALID,915.995,VALID,0,VALID,99.3835,VALID,0,VALID,20.6205,VALID,122,VALID,0.411994,
2002-04-28, 01:02:00,VALID,915.974,VALID,0,VALID,99.3848,VALID,0.0339617,VALID,20.617,VALID,108,VALID,0.747889,
2002-04-28, 01:03:00,VALID,915.953,VALID,0,VALID,99.395,VALID,0,VALID,20.6568,VALID,110,VALID,0.972245,
2002-04-28, 01:04:00,VALID,915.928,VALID,0,VALID,99.3962,VALID,0,VALID,20.6991,VALID,108,VALID,0.616132,
2002-04-28, 01:05:00,VALID,915.919,VALID,0,VALID,99.3937,VALID,0,VALID,20.6889,VALID,109,VALID,0.475329,
2002-04-28, 01:06:00,VALID,915.91,VALID,0,VALID,99.3848,VALID,0,VALID,20.6986,VALID,129,VALID,0.344551,
2002-04-28, 01:07:00,VALID,915.896,VALID,0,VALID,99.3962,VALID,0,VALID,20.6821,VALID,127,VALID,0.425564,
2002-04-28, 01:08:00,VALID,915.887,VALID,0,VALID,99.3772,VALID,0,VALID,20.6725,VALID,125,VALID,0.263622,
2002-04-28, 01:09:00,VALID,915.865,VALID,0,VALID,99.3861,VALID,0.0169808,VALID,20.6697,VALID,128,VALID,0.590495,
2002-04-28, 01:10:00,VALID,915.847,VALID,0,VALID,99.3937,VALID,0,VALID,20.6794,VALID,146,VALID,0.852896,
2002-04-28, 01:11:00,VALID,915.812,VALID,0,VALID,99.3873,VALID,0,VALID,20.7147,VALID,146,VALID,1.01586,
2002-04-28, 01:12:00,VALID,915.789,VALID,0,VALID,99.3912,VALID,0.0169808,VALID,20.757,VALID,148,VALID,1.15842,
2002-04-28, 01:13:00,VALID,915.76,VALID,0,VALID,99.3823,VALID,0.0169808,VALID,20.7791,VALID,155,VALID,0.804071,
2002-04-28, 01:14:00,VALID,915.726,VALID,0,VALID,99.3823,VALID,0.0169808,VALID,20.7885,VALID,137,VALID,0.564611,
2002-04-28, 01:15:00,VALID,915.722,VALID,0,VALID,99.3657,VALID,0,VALID,20.7885,VALID,122,VALID,0.529297,
2002-04-28, 01:16:00,VALID,915.706,VALID,0,VALID,99.3581,VALID,0,VALID,20.7627,VALID,122,VALID,0.536529,
2002-04-28, 01:17:00,VALID,915.706,VALID,0,VALID,99.353,VALID,0.0169808,VALID,20.76,VALID,121,VALID,0.822635,
2002-04-28, 01:18:00,VALID,915.689,VALID,0,VALID,99.3619,VALID,0,VALID,20.7662,VALID,133,VALID,0.918174,
2002-04-28, 01:19:00,VALID,915.677,VALID,0,VALID,99.3581,VALID,0,VALID,20.7726,VALID,132,VALID,0.920573,
2002-04-28, 01:20:00,VALID,915.652,VALID,0,VALID,99.3492,VALID,0,VALID,20.7828,VALID,150,VALID,1.0629,
2002-04-28, 01:21:00,VALID,915.63,VALID,0,VALID,99.3441,VALID,0.0169808,VALID,20.7659,VALID,147,VALID,1.00758,
2002-04-28, 01:22:00,VALID,915.619,VALID,0,VALID,99.3314,VALID,0,VALID,20.7796,VALID,151,VALID,0.906672,
2002-04-28, 01:23:00,VALID,915.597,VALID,0,VALID,99.3225,VALID,0,VALID,20.7726,VALID,142,VALID,0.75699,
2002-04-28, 01:24:00,VALID,915.588,VALID,0,VALID,99.3098,VALID,0.0169808,VALID,20.7761,VALID,144,VALID,0.794552,
2002-04-28, 01:25:00,VALID,915.574,VALID,0,VALID,99.3123,VALID,0.0339617,VALID,20.7594,VALID,141,VALID,0.86801,
2002-04-28, 01:26:00,VALID,915.548,VALID,0,VALID,99.3034,VALID,0,VALID,20.7669,VALID,133,VALID,0.751202,
2002-04-28, 01:27:00,VALID,915.533,VALID,0,VALID,99.2869,VALID,0,VALID,20.7468,VALID,124,VALID,0.538194,
2002-04-28, 01:28:00,VALID,915.545,VALID,0,VALID,99.2983,VALID,0.0169808,VALID,20.7306,VALID,111,VALID,0.398237,
2002-04-28, 01:29:00,VALID,915.534,VALID,0,VALID,99.3009,VALID,0,VALID,20.7306,VALID,84,VALID,0.440755,
2002-04-28, 01:30:00,VALID,915.537,VALID,0,VALID,99.2971,VALID,0,VALID,20.7118,VALID,77,VALID,0.541159,
2002-04-28, 01:31:00,VALID,915.534,VALID,0,VALID,99.3009,VALID,0.0339617,VALID,20.7015,VALID,87,VALID,0.621686,
2002-04-28, 01:32:00,VALID,915.523,VALID,0,VALID,99.3098,VALID,0.0169808,VALID,20.7021,VALID,82,VALID,0.257378,
2002-04-28, 01:33:00,VALID,915.512,VALID,0,VALID,99.2971,VALID,0,VALID,20.6821,VALID,69,VALID,0.334498,
2002-04-28, 01:34:00,VALID,915.515,VALID,0,VALID,99.2971,VALID,0.0169808,VALID,20.6531,VALID,69,VALID,0.275971,
2002-04-28, 01:35:00,VALID,915.505,VALID,0,VALID,99.2932,VALID,0,VALID,20.6399,VALID,69,VALID,0.282118,
2002-04-28, 01:36:00,VALID,915.505,VALID,0,VALID,99.311,VALID,-0.0169808,VALID,20.6566,VALID,69,VALID,0.329814,
2002-04-28, 01:37:00,VALID,915.48,VALID,0,VALID,99.3149,VALID,-0.0169808,VALID,20.6759,VALID,86,VALID,0.431799,
2002-04-28, 01:38:00,VALID,915.471,VALID,0,VALID,99.3288,VALID,0,VALID,20.6921,VALID,112,VALID,0.52097,
2002-04-28, 01:39:00,VALID,915.456,VALID,0,VALID,99.3187,VALID,0,VALID,20.6918,VALID,157,VALID,0.548611,
2002-04-28, 01:40:00,VALID,915.436,VALID,0,VALID,99.3199,VALID,0,VALID,20.6854,VALID,157,VALID,0.552684,
2002-04-28, 01:41:00,VALID,915.407,VALID,0,VALID,99.3199,VALID,-0.0169808,VALID,20.6856,VALID,128,VALID,0.246783,
2002-04-28, 01:42:00,VALID,915.39,VALID,0,VALID,99.3174,VALID,0,VALID,20.673,VALID,108,VALID,0.000844595,
2002-04-28, 01:43:00,VALID,915.365,VALID,0,VALID,99.311,VALID,0,VALID,20.6628,VALID,108,VALID,0.0248766,
2002-04-28, 01:44:00,VALID,915.336,VALID,0,VALID,99.3161,VALID,0,VALID,20.6436,VALID,108,VALID,0.000633446,
2002-04-28, 01:45:00,VALID,915.326,VALID,0,VALID,99.325,VALID,0.0169808,VALID,20.6372,VALID,108,VALID,0.106702,
2002-04-28, 01:46:00,VALID,915.312,VALID,0,VALID,99.3149,VALID,-0.0169808,VALID,20.6275,VALID,108,VALID,0.0809295,
2002-04-28, 01:47:00,VALID,915.311,VALID,0,VALID,99.3199,VALID,0,VALID,20.618,VALID,108,VALID,0.00173611,
2002-04-28, 01:48:00,VALID,915.296,VALID,0,VALID,99.3288,VALID,-0.0169808,VALID,20.6178,VALID,108,VALID,0.109575,
2002-04-28, 01:49:00,VALID,915.299,VALID,0,VALID,99.3187,VALID,-0.0169808,VALID,20.6116,VALID,108,VALID,0.223524,
2002-04-28, 01:50:00,VALID,915.292,VALID,0,VALID,99.3263,VALID,0,VALID,20.6016,VALID,108,VALID,0.193216,
2002-04-28, 01:51:00,VALID,915.272,VALID,0,VALID,99.3377,VALID,-0.0169808,VALID,20.5981,VALID,108,VALID,0.196733,
2002-04-28, 01:52:00,VALID,915.257,VALID,0,VALID,99.325,VALID,-0.0169808,VALID,20.5857,VALID,133,VALID,0.632378,
2002-04-28, 01:53:00,VALID,915.245,VALID,0,VALID,99.3288,VALID,0.0169808,VALID,20.5658,VALID,148,VALID,0.7206,
2002-04-28, 01:54:00,VALID,915.242,VALID,0,VALID,99.339,VALID,0.0509425,VALID,20.5623,VALID,148,VALID,0.455448,
2002-04-28, 01:55:00,VALID,915.234,VALID,0,VALID,99.3352,VALID,0,VALID,20.5491,VALID,148,VALID,0.480686,
2002-04-28, 01:56:00,VALID,915.226,VALID,0,VALID,99.3352,VALID,0.0169808,VALID,20.5559,VALID,148,VALID,0.532517,
2002-04-28, 01:57:00,VALID,915.214,VALID,0,VALID,99.3339,VALID,0.0169808,VALID,20.54,VALID,148,VALID,0.360431,
2002-04-28, 01:58:00,VALID,915.208,VALID,0,VALID,99.3479,VALID,0.0339617,VALID,20.5397,VALID,148,VALID,0.241982,
2002-04-28, 01:59:00,VALID,915.205,VALID,0,VALID,99.3339,VALID,0.0169808,VALID,20.5206,VALID,133,VALID,0.142578,
2002-04-28, 02:00:00,VALID,915.207,VALID,0,VALID,99.3606,VALID,0.0169808,VALID,20.4972,VALID,101,VALID,0.311498,
2002-04-28, 02:01:00,VALID,915.199,VALID,0,VALID,99.3492,VALID,0.0169808,VALID,20.488,VALID,93,VALID,0.643382,
2002-04-28, 02:02:00,VALID,915.184,VALID,0,VALID,99.3517,VALID,0,VALID,20.4756,VALID,89,VALID,0.528716,
2002-04-28, 02:03:00,VALID,915.168,VALID,0,VALID,99.367,VALID,0.0169808,VALID,20.4684,VALID,123,VALID,0.462582,
2002-04-28, 02:04:00,VALID,915.151,VALID,0,VALID,99.3594,VALID,0.0169808,VALID,20.4885,VALID,127,VALID,0.573057,
2002-04-28, 02:05:00,VALID,915.121,VALID,0,VALID,99.381,VALID,0.0509425,VALID,20.5141,VALID,153,VALID,0.700247,
2002-04-28, 02:06:00,VALID,915.121,VALID,0,VALID,99.3695,VALID,0.0169808,VALID,20.5273,VALID,136,VALID,0.443309,
2002-04-28, 02:07:00,VALID,915.106,VALID,0,VALID,99.3759,VALID,0,VALID,20.5335,VALID,115,VALID,0.792535,
2002-04-28, 02:08:00,VALID,915.086,VALID,0,VALID,99.3823,VALID,0,VALID,20.537,VALID,107,VALID,0.461538,
2002-04-28, 02:09:00,VALID,915.069,VALID,0,VALID,99.3644,VALID,0.0169808,VALID,20.5268,VALID,106,VALID,0.546875,
2002-04-28, 02:10:00,VALID,915.041,VALID,0,VALID,99.3606,VALID,0.0169808,VALID,20.5044,VALID,107,VALID,0.608041,
2002-04-28, 02:11:00,VALID,915.022,VALID,0,VALID,99.3746,VALID,0.0169808,VALID,20.5015,VALID,99,VALID,0.475852,
2002-04-28, 02:12:00,VALID,915.022,VALID,0,VALID,99.367,VALID,0,VALID,20.4953,VALID,94,VALID,0.3125,
2002-04-28, 02:13:00,VALID,915.002,VALID,0,VALID,99.3657,VALID,0,VALID,20.4657,VALID,71,VALID,0.423931,
2002-04-28, 02:14:00,VALID,915,VALID,0,VALID,99.3734,VALID,0.0169808,VALID,20.4594,VALID,77,VALID,0.21136,
2002-04-28, 02:15:00,VALID,914.988,VALID,0,VALID,99.367,VALID,0.0169808,VALID,20.4498,VALID,82,VALID,0.0967882,
2002-04-28, 02:16:00,VALID,914.994,VALID,0,VALID,99.3721,VALID,0,VALID,20.4567,VALID,93,VALID,0.416174,
2002-04-28, 02:17:00,VALID,914.999,VALID,0,VALID,99.3784,VALID,0,VALID,20.4694,VALID,89,VALID,0.197846,
2002-04-28, 02:18:00,VALID,914.99,VALID,0,VALID,99.3823,VALID,0,VALID,20.4463,VALID,76,VALID,0.192845,
2002-04-28, 02:19:00,VALID,914.985,VALID,0,VALID,99.3797,VALID,0,VALID,20.4627,VALID,71,VALID,0,
2002-04-28, 02:20:00,VALID,914.981,VALID,0,VALID,99.3772,VALID,0.0169808,VALID,20.4788,VALID,71,VALID,0,
2002-04-28, 02:21:00,VALID,914.99,VALID,0,VALID,99.3873,VALID,0.0169808,VALID,20.4724,VALID,71,VALID,0,
2002-04-28, 02:22:00,VALID,914.965,VALID,0,VALID,99.3861,VALID,0.0169808,VALID,20.4856,VALID,71,VALID,0,
2002-04-28, 02:23:00,VALID,914.957,VALID,0,VALID,99.3899,VALID,0,VALID,20.4821,VALID,70,VALID,0,
2002-04-28, 02:24:00,VALID,914.916,VALID,0,VALID,99.3937,VALID,0.0169808,VALID,20.4786,VALID,342,VALID,0.333615,
2002-04-28, 02:25:00,VALID,914.879,VALID,0,VALID,99.3962,VALID,0,VALID,20.4788,VALID,305,VALID,0.433388,
2002-04-28, 02:26:00,VALID,914.866,VALID,0,VALID,99.4001,VALID,-0.0339617,VALID,20.5055,VALID,305,VALID,0.0769231,
2002-04-28, 02:27:00,VALID,914.874,VALID,0,VALID,99.3975,VALID,0,VALID,20.5179,VALID,305,VALID,0.150825,
2002-04-28, 02:28:00,VALID,914.864,VALID,0,VALID,99.4039,VALID,0,VALID,20.5176,VALID,302,VALID,0.104167,
2002-04-28, 02:29:00,VALID,914.873,VALID,0,VALID,99.4039,VALID,-0.0169808,VALID,20.5111,VALID,260,VALID,0.307292,
2002-04-28, 02:30:00,VALID,914.87,VALID,0,VALID,99.4001,VALID,0,VALID,20.5015,VALID,260,VALID,0.290015,
2002-04-28, 02:31:00,VALID,914.881,VALID,0,VALID,99.4026,VALID,0,VALID,20.5082,VALID,260,VALID,0.130919,
2002-04-28, 02:32:00,VALID,914.893,VALID,0,VALID,99.4026,VALID,0,VALID,20.5174,VALID,260,VALID,0.194444,
2002-04-28, 02:33:00,VALID,914.907,VALID,0,VALID,99.4001,VALID,0.0169808,VALID,20.5114,VALID,260,VALID,0,
2002-04-28, 02:34:00,VALID,914.903,VALID,0,VALID,99.3988,VALID,0.0169808,VALID,20.5077,VALID,260,VALID,0,
2002-04-28, 02:35:00,VALID,914.894,VALID,0,VALID,99.414,VALID,0.0169808,VALID,20.5047,VALID,260,VALID,0,
2002-04-28, 02:36:00,VALID,914.894,VALID,0,VALID,99.409,VALID,-0.0169808,VALID,20.5044,VALID,309,VALID,0.183277,
2002-04-28, 02:37:00,VALID,914.899,VALID,0,VALID,99.409,VALID,0.0169808,VALID,20.4985,VALID,9,VALID,0.287373,
2002-04-28, 02:38:00,VALID,914.875,VALID,0,VALID,99.4064,VALID,-0.0849042,VALID,20.4664,VALID,9,VALID,0.00328947,
2002-04-28, 02:39:00,VALID,914.847,VALID,0,VALID,99.3937,VALID,-0.101885,VALID,20.4704,VALID,9,VALID,0.0844184,
2002-04-28, 02:40:00,VALID,914.844,VALID,0,VALID,99.4026,VALID,-0.101885,VALID,20.4379,VALID,9,VALID,0.228966,
2002-04-28, 02:41:00,VALID,914.824,VALID,0,VALID,99.4013,VALID,-0.118866,VALID,20.3931,VALID,9,VALID,0.147289,
2002-04-28, 02:42:00,VALID,914.806,VALID,0,VALID,99.3988,VALID,-0.118866,VALID,20.3904,VALID,9,VALID,0,
2002-04-28, 02:43:00,VALID,914.785,VALID,0,VALID,99.4039,VALID,-0.101885,VALID,20.3738,VALID,9,VALID,0,
2002-04-28, 02:44:00,VALID,914.763,VALID,0,VALID,99.4001,VALID,-0.101885,VALID,20.3842,VALID,9,VALID,0,
2002-04-28, 02:45:00,VALID,914.755,VALID,0,VALID,99.4026,VALID,-0.135847,VALID,20.3703,VALID,9,VALID,0,
2002-04-28, 02:46:00,VALID,914.722,VALID,0,VALID,99.4001,VALID,-0.101885,VALID,20.377,VALID,9,VALID,0,
2002-04-28, 02:47:00,VALID,914.721,VALID,0,VALID,99.4039,VALID,-0.101885,VALID,20.3834,VALID,17,VALID,0.0358073,
2002-04-28, 02:48:00,VALID,914.716,VALID,0,VALID,99.4153,VALID,-0.101885,VALID,20.3834,VALID,84,VALID,0.678686,
2002-04-28, 02:49:00,VALID,914.71,VALID,0,VALID,99.4293,VALID,-0.101885,VALID,20.4508,VALID,78,VALID,0.913845,
2002-04-28, 02:50:00,VALID,914.705,VALID,0,VALID,99.4191,VALID,-0.101885,VALID,20.4839,VALID,64,VALID,0.492759,
2002-04-28, 02:51:00,VALID,914.679,VALID,0,VALID,99.4268,VALID,-0.101885,VALID,20.4777,VALID,81,VALID,0.797585,
2002-04-28, 02:52:00,VALID,914.651,VALID,0,VALID,99.4344,VALID,-0.101885,VALID,20.4806,VALID,62,VALID,0.576172,
2002-04-28, 02:53:00,VALID,914.626,VALID,0,VALID,99.4268,VALID,0.0169808,VALID,20.4333,VALID,26,VALID,0.712377,
2002-04-28, 02:54:00,VALID,914.578,VALID,0,VALID,99.4217,VALID,0.0169808,VALID,20.3841,VALID,26,VALID,0.61022,
2002-04-28, 02:55:00,VALID,914.575,VALID,0,VALID,99.4153,VALID,0.0339617,VALID,20.3717,VALID,27,VALID,0.671224,
2002-04-28, 02:56:00,VALID,914.563,VALID,0,VALID,99.4204,VALID,0.0339617,VALID,20.3588,VALID,29,VALID,0.659206,
2002-04-28, 02:57:00,VALID,914.565,VALID,0,VALID,99.4217,VALID,0.0339617,VALID,20.3396,VALID,45,VALID,0.672508,
2002-04-28, 02:58:00,VALID,914.577,VALID,0,VALID,99.4331,VALID,0.0679233,VALID,20.3846,VALID,46,VALID,1.02426,
2002-04-28, 02:59:00,VALID,914.569,VALID,0,VALID,99.428,VALID,0.0339617,VALID,20.4134,VALID,47,VALID,0.667969,
2002-04-28, 03:00:00,VALID,914.568,VALID,0,VALID,99.4153,VALID,0.0509425,VALID,20.4003,VALID,65,VALID,0.554487,
2002-04-28, 03:01:00,VALID,914.562,VALID,0,VALID,99.4179,VALID,0.0509425,VALID,20.3841,VALID,58,VALID,0.463235,
2002-04-28, 03:02:00,VALID,914.547,VALID,0,VALID,99.4153,VALID,0.0169808,VALID,20.3779,VALID,49,VALID,0.0730574,
2002-04-28, 03:03:00,VALID,914.543,VALID,0,VALID,99.4204,VALID,0.0339617,VALID,20.3685,VALID,49,VALID,0.165913,
2002-04-28, 03:04:00,VALID,914.527,VALID,0,VALID,99.4153,VALID,0.0509425,VALID,20.3458,VALID,120,VALID,0.478674,
2002-04-28, 03:05:00,VALID,914.509,VALID,0,VALID,99.4153,VALID,0.0509425,VALID,20.3289,VALID,160,VALID,0.458676,
2002-04-28, 03:06:00,VALID,914.493,VALID,0,VALID,99.414,VALID,0,VALID,20.326,VALID,164,VALID,0.417668,
2002-04-28, 03:07:00,VALID,914.467,VALID,0,VALID,99.4077,VALID,0.0679233,VALID,20.3265,VALID,166,VALID,0.0581597,
2002-04-28, 03:08:00,VALID,914.45,VALID,0,VALID,99.4026,VALID,-0.0849042,VALID,20.2892,VALID,166,VALID,0,
2002-04-28, 03:09:00,VALID,914.411,VALID,0,VALID,99.4064,VALID,-0.0849042,VALID,20.2467,VALID,166,VALID,0,
2002-04-28, 03:10:00,VALID,914.412,VALID,0,VALID,99.4102,VALID,-0.0849042,VALID,20.2276,VALID,166,VALID,0,
2002-04-28, 03:11:00,VALID,914.384,VALID,0,VALID,99.4128,VALID,-0.0339617,VALID,20.2281,VALID,166,VALID,0,
2002-04-28, 03:12:00,VALID,914.363,VALID,0,VALID,99.4255,VALID,-0.0679233,VALID,20.2335,VALID,166,VALID,0.101128,
2002-04-28, 03:13:00,VALID,914.349,VALID,0,VALID,99.4229,VALID,-0.0509425,VALID,20.2701,VALID,166,VALID,0.0931332,
2002-04-28, 03:14:00,VALID,914.34,VALID,0,VALID,99.4128,VALID,-0.101885,VALID,20.2442,VALID,166,VALID,0.232475,
2002-04-28, 03:15:00,VALID,914.334,VALID,0,VALID,99.4191,VALID,-0.101885,VALID,20.2276,VALID,159,VALID,0.292101,
2002-04-28, 03:16:00,VALID,914.317,VALID,0,VALID,99.4306,VALID,-0.0849042,VALID,20.2833,VALID,99,VALID,0.225507,
2002-04-28, 03:17:00,VALID,914.306,VALID,0,VALID,99.4179,VALID,-0.101885,VALID,20.2375,VALID,55,VALID,0.327492,
2002-04-28, 03:18:00,VALID,914.296,VALID,0,VALID,99.4179,VALID,-0.0849042,VALID,20.1602,VALID,49,VALID,0.128906,
2002-04-28, 03:19:00,VALID,914.279,VALID,0,VALID,99.4179,VALID,-0.0849042,VALID,20.1346,VALID,49,VALID,0,
2002-04-28, 03:20:00,VALID,914.263,VALID,0,VALID,99.4153,VALID,-0.0679233,VALID,20.1374,VALID,62,VALID,0.114183,
2002-04-28, 03:21:00,VALID,914.26,VALID,0,VALID,99.4433,VALID,-0.101885,VALID,20.1697,VALID,132,VALID,0.470358,
2002-04-28, 03:22:00,VALID,914.264,VALID,0,VALID,99.4357,VALID,-0.101885,VALID,20.2147,VALID,127,VALID,0.639992,
2002-04-28, 03:23:00,VALID,914.258,VALID,0,VALID,99.4458,VALID,-0.0849042,VALID,20.2868,VALID,138,VALID,0.751234,
2002-04-28, 03:24:00,VALID,914.245,VALID,0,VALID,99.4306,VALID,-0.0849042,VALID,20.3347,VALID,123,VALID,0.695313,
2002-04-28, 03:25:00,VALID,914.257,VALID,0,VALID,99.4191,VALID,-0.0849042,VALID,20.3549,VALID,106,VALID,0.766653,
2002-04-28, 03:26:00,VALID,914.269,VALID,0,VALID,99.4077,VALID,-0.101885,VALID,20.3961,VALID,121,VALID,0.871194,
2002-04-28, 03:27:00,VALID,914.256,VALID,0,VALID,99.3823,VALID,-0.101885,VALID,20.4513,VALID,106,VALID,1.00781,
2002-04-28, 03:28:00,VALID,914.268,VALID,0,VALID,99.3543,VALID,-0.101885,VALID,20.4866,VALID,129,VALID,0.759415,
2002-04-28, 03:29:00,VALID,914.249,VALID,0,VALID,99.3161,VALID,-0.101885,VALID,20.5097,VALID,139,VALID,0.518012,
2002-04-28, 03:30:00,VALID,914.265,VALID,0,VALID,99.2983,VALID,-0.0849042,VALID,20.5224,VALID,118,VALID,1.19112,
2002-04-28, 03:31:00,VALID,914.258,VALID,0,VALID,99.2487,VALID,-0.101885,VALID,20.538,VALID,84,VALID,0.537642,
2002-04-28, 03:32:00,VALID,914.251,VALID,0,VALID,99.2068,VALID,-0.101885,VALID,20.5216,VALID,100,VALID,0.67513,
2002-04-28, 03:33:00,VALID,914.231,VALID,0,VALID,99.175,VALID,-0.0679233,VALID,20.5448,VALID,108,VALID,1.39371,
2002-04-28, 03:34:00,VALID,914.233,VALID,0,VALID,99.1368,VALID,-0.0679233,VALID,20.5572,VALID,145,VALID,1.46981,
2002-04-28, 03:35:00,VALID,914.22,VALID,0,VALID,99.0644,VALID,-0.0849042,VALID,20.5903,VALID,101,VALID,1.06684,